Helicity
-49 -42 -51 -77 -22 -53 133 55 59 54 72 66 50 20 99 106 88 108 108 66 54 55 23 35 42 32 43 44 41 46 63 73 78 73 79 80 98 121 123 122 123 114 108 104 94 82 77 64 85
-39 -49 -51 -49 -57 7 89 50 31 100 75 27 17 -9 26 74 48 29 60 54 49 49 49 52 47 55 46 43 45 45 57 70 79 88 91 95 104 109 108 98 86 93 92 97 93 97 79 86 102
-19 -45 -55 -36 -54 59 106 -8 112 39 16 3 28 47 28 48 49 95 67 39 42 52 61 40 33 28 27 32 34 47 70 85 98 105 106 108 93 83 83 80 86 84 82 78 93 100 90 93 97
-9 -11 -29 -95 110 84 43 72 43 30 29 -6 23 72 50 83 40 56 39 33 29 23 30 25 24 27 39 47 59 64 71 73 79 78 73 78 78 71 73 85 95 99 91 102 78 80 85 88 92
-50 -58 -51 48 91 46 49 42 -3 4 23 31 -24 85 69 53 85 53 39 21 15 19 33 33 32 37 42 49 52 61 63 60 63 71 68 53 53 54 65 72 74 87 101 104 100 92 75 74 77
-66 -71 33 47 37 35 28 16 -11 20 29 20 16 42 43 32 51 39 13 15 16 36 38 25 22 22 38 45 55 57 56 55 65 71 69 64 67 72 74 79 83 84 87 95 98 100 95 92 87
-97 -59 50 55 23 17 41 -5 -18 19 8 30 11 46 29 -8 -3 -12 -2 12 11 6 21 26 42 55 52 42 40 39 42 45 44 50 50 50 58 58 59 68 72 72 73 73 75 76 72 70 67
6 41 36 31 -2 73 41 -10 16 -17 64 52 74 18 12 -11 -12 -17 -14 -6 4 9 23 46 49 46 37 43 37 42 39 31 35 38 32 33 38 40 40 50 75 66 63 60 59 57 55 53 52
-54 -31 15 14 26 47 14 17 18 40 14 33 34 50 19 11 -7 -14 -17 6 20 12 40 44 48 36 31 36 42 26 29 20 25 32 23 10 19 36 37 102 79 64 57 50 47 46 43 36 33
-56 21 66 35 30 26 -0 11 2 40 5 3 5 -4 40 11 4 13 15 25 32 36 33 45 36 37 20 16 23 33 45 38 43 48 39 35 57 79 66 83 68 49 44 49 45 48 34 18 21
-14 74 49 33 37 7 -5 10 15 11 10 -13 9 23 50 47 39 32 20 28 31 38 22 48 35 20 -5 21 5 19 23 36 52 41 50 80 47 63 43 67 68 40 35 21 39 47 39 110 83
28 34 8 15 33 43 15 -11 14 37 61 30 9 39 49 37 35 28 15 20 27 34 23 33 28 20 3 -11 -5 2 7 33 30 79 51 42 36 67 55 54 55 43 56 86 47 69 79 54 59
10 -0 4 -7 3 24 23 6 9 5 36 6 16 39 53 47 39 28 8 9 14 24 22 34 31 20 19 10 5 3 5 28 44 42 69 50 45 60 45 50 36 44 43 44 52 60 62 74 61
5 -5 -3 -0 -1 -0 28 -21 12 45 14 17 30 20 31 27 22 28 14 16 26 13 23 30 34 30 32 13 26 23 39 49 52 63 85 63 47 53 36 34 36 29 31 39 54 57 62 67 75
-10 -14 -16 -7 -10 -1 25 -6 19 63 21 14 33 4 14 24 17 33 27 20 12 27 19 36 47 56 51 42 43 47 75 65 68 73 77 70 46 41 36 37 45 34 37 39 25 39 44 49 52
13 21 13 -5 -15 5 46 35 70 34 6 5 33 31 7 33 29 37 25 18 9 11 39 37 53 61 62 70 77 82 87 71 64 69 72 82 59 57 56 50 49 44 49 29 29 40 55 64 67
2 21 18 27 7 17 8 56 105 39 11 10 4 45 45 15 35 37 46 28 18 7 16 30 43 60 68 101 84 115 92 52 64 90 72 101 86 82 83 72 55 63 59 58 64 76 101 102 98
13 2 23 30 50 14 28 43 68 33 51 67 61 38 45 25 28 60 80 34 49 93 92 73 70 106 120 151 116 94 81 65 80 83 112 175 120 146 108 81 64 71 75 79 86 103 99 113 114
72 33 20 47 51 41 47 76 79 78 85 109 110 108 108 149 226 290 243 182 100 84 77 141 140 230 140 140 169 152 138 160 132 143 236 151 151 143 112 100 94 88 93 118 124 114 106 125 121
28 22 35 26 37 47 45 93 91 106 166 163 149 147 142 141 164 189 181 174 164 143 138 119 147 164 166 199 210 153 134 144 149 112 238 160 178 100 82 114 88 89 128 139 113 115 129 128 126
36 53 50 46 26 8 4 111 102 117 124 138 152 154 169 167 179 200 182 155 131 143 146 163 181 180 188 179 169 151 110 130 157 192 111 92 147 118 167 173 125 134 129 114 111 114 117 138 137
36 63 28 13 5 5 42 39 165 149 163 162 187 179 174 170 179 160 134 121 117 120 143 170 187 181 154 141 149 118 111 133 154 106 168 212 130 146 148 118 123 115 102 73 70 84 161 184 175
95 38 24 20 18 13 65 27 209 139 141 171 191 179 179 181 158 135 108 93 108 132 162 167 161 139 125 110 105 106 109 110 81 119 178 108 139 151 119 111 113 108 68 73 113 126 124 179 206
26 11 16 22 36 60 22 52 145 98 173 189 157 178 193 181 139 104 87 74 114 135 138 106 85 84 90 86 84 78 67 77 80 99 127 158 146 125 117 121 109 99 61 92 148 265 294 245 216
11 21 38 30 54 46 141 46 153 224 263 235 159 139 163 148 107 85 77 74 93 106 122 92 93 89 93 77 63 84 80 106 128 162 177 144 119 105 88 88 63 78 176 215 243 216 223 208 195
13 15 48 65 97 79 75 66 166 152 130 129 130 141 117 109 74 49 48 61 108 128 96 58 57 67 102 132 151 154 168 189 177 169 153 126 99 91 76 91 199 270 366 334 254 197 162 112 125
41 50 49 38 53 60 38 138 119 109 91 76 118 115 147 99 59 74 93 115 126 126 102 98 86 107 141 133 128 137 123 108 92 118 117 106 94 80 203 321 334 299 252 233 216 188 138 99 59
26 54 32 65 75 73 61 59 67 124 87 112 66 114 111 69 76 104 100 126 127 110 98 86 84 107 115 121 143 122 117 100 123 147 136 155 174 266 227 246 217 175 138 107 86 81 101 126 150
54 48 44 64 109 118 99 81 107 125 103 57 170 126 82 86 90 89 90 89 77 113 138 176 172 162 121 120 110 111 123 119 146 141 177 171 236 207 176 129 120 103 80 67 54 42 39 46 63
36 59 61 91 96 156 124 102 147 96 130 100 77 91 64 65 75 79 93 117 174 172 193 174 159 135 148 122 115 112 102 123 153 238 218 175 153 107 110 79 57 76 90 76 79 83 94 96 80
Wind_Speed
18 14 17 25 34 33 24 20 19 21 23 29 29 36 35 38 40 30 23 25 25 27 28 30 31 32 34 35 36 36 37 37 35 33 31 29 31 33 33 34 34 36 37 37 38 39 41 37 38
20 17 17 26 35 20 16 19 14 26 26 27 30 30 35 37 34 23 23 26 27 28 29 31 32 34 36 35 36 36 36 35 34 33 31 31 31 31 31 32 35 37 39 41 40 40 42 41 40
25 17 31 28 28 19 18 15 20 22 24 26 27 35 36 30 28 27 27 27 29 30 30 31 33 35 36 37 36 36 36 35 34 33 32 33 31 32 34 34 38 41 40 36 39 40 39 40 39
14 20 29 23 14 25 13 16 17 21 24 27 28 32 31 34 29 27 30 29 30 30 32 33 34 35 35 35 36 36 35 33 33 33 31 30 30 31 33 37 38 37 37 39 35 36 37 39 40
18 32 20 13 15 18 20 19 17 19 23 26 29 29 30 29 28 27 27 29 31 33 32 34 34 34 35 35 35 36 36 37 36 34 34 34 34 33 35 35 36 39 41 40 39 37 36 37 39
19 27 11 14 13 17 19 20 22 22 26 27 29 30 30 29 30 25 27 29 31 33 34 37 37 35 35 34 36 37 37 37 36 37 37 37 37 38 38 39 40 40 39 40 39 38 37 38 40
29 16 10 13 12 14 19 21 22 23 23 27 25 28 29 46 43 44 37 35 41 43 39 36 34 32 33 34 36 36 36 36 37 37 36 36 36 36 36 37 38 38 38 38 38 38 39 39 38
27 17 12 13 11 17 20 22 24 23 26 23 31 24 49 53 54 54 52 49 44 40 36 32 30 28 29 32 34 35 34 35 35 35 35 34 32 34 35 33 36 36 37 37 38 38 38 36 36
23 13 13 17 15 18 18 22 21 25 21 32 34 19 50 53 51 49 46 42 37 34 29 27 28 28 30 31 31 30 31 31 32 32 33 28 26 32 29 39 37 36 36 36 37 37 36 36 33
30 18 18 22 22 18 27 14 12 42 32 37 41 41 43 48 46 43 40 36 33 29 26 25 26 28 29 30 30 30 29 28 32 34 34 32 40 41 43 34 33 31 31 34 34 36 37 34 35
27 19 17 16 24 33 37 36 37 36 40 43 46 43 43 43 41 38 33 29 27 24 23 23 25 27 30 34 33 28 28 29 29 32 37 40 41 38 38 37 29 28 27 37 29 36 38 48 49
19 16 25 29 38 36 41 35 39 38 16 23 19 36 36 34 32 30 28 23 22 22 20 21 23 25 29 33 32 34 29 30 30 35 37 38 39 44 44 45 49 45 44 48 44 46 45 47 48
11 28 30 38 41 37 35 40 35 42 28 32 27 29 29 29 27 24 21 20 20 19 19 19 19 22 26 29 33 33 32 31 37 36 39 40 43 45 46 48 48 49 48 48 50 51 51 51 51
35 39 40 42 41 38 40 41 43 19 18 21 22 24 24 23 22 22 20 18 17 18 16 16 17 19 22 27 31 33 32 35 34 38 40 40 41 45 47 49 51 52 50 51 55 56 56 56 55
43 40 40 42 43 34 41 46 45 20 19 19 18 18 18 18 17 16 15 14 14 14 13 13 14 16 19 24 29 34 36 38 38 39 40 42 44 46 48 50 53 53 54 54 52 52 51 50 51
47 45 46 28 37 32 41 36 16 20 26 15 10 12 10 10 11 12 13 13 13 12 12 14 16 17 17 23 30 36 38 39 40 40 41 45 46 48 50 52 53 54 58 57 58 57 58 58 58
43 44 36 19 35 36 30 27 27 42 48 11 5 6 7 7 8 10 10 12 13 16 17 19 20 20 22 26 32 36 39 38 39 41 43 46 50 50 52 53 55 56 57 57 57 58 58 60 58
31 37 24 37 26 34 30 34 38 35 30 25 19 16 16 10 7 8 16 18 25 32 32 30 28 25 28 33 34 37 38 39 40 44 47 51 54 54 55 56 57 57 61 62 63 66 66 67 68
34 37 35 30 33 41 31 31 31 30 27 27 26 24 22 20 24 27 29 28 27 32 31 33 30 34 36 36 41 43 45 48 47 47 52 53 52 58 61 60 64 65 69 73 72 71 72 72 69
35 39 33 36 33 40 30 21 25 25 27 29 29 28 27 25 25 28 30 32 34 35 35 35 34 38 40 40 43 43 46 47 49 43 54 57 59 65 70 73 74 76 78 77 75 74 77 75 70
33 41 40 45 41 35 30 16 17 22 24 26 28 28 28 28 28 30 34 36 37 38 38 39 40 42 44 46 45 48 48 47 54 56 67 67 70 73 73 77 78 77 76 77 76 74 75 80 75
45 32 45 45 41 29 8 24 13 14 19 23 27 29 29 30 31 33 34 36 38 40 41 42 45 47 48 51 52 54 56 62 66 69 73 75 72 74 77 77 75 73 74 76 75 73 76 78 84
41 47 44 42 38 40 22 30 14 10 17 22 28 30 30 32 33 34 36 37 40 43 46 49 51 51 54 56 57 61 64 67 68 70 75 78 73 76 76 76 77 78 78 79 81 82 80 78 82
46 45 40 41 38 40 33 34 19 16 18 24 28 30 32 34 35 36 39 42 45 48 51 53 53 56 56 58 59 62 67 70 74 75 77 74 77 78 80 81 80 80 78 76 78 76 75 77 79
46 47 46 41 36 43 32 37 35 25 27 27 28 30 32 34 37 41 45 49 50 53 54 56 59 61 60 60 63 66 68 70 70 75 76 82 85 86 85 83 80 78 77 76 75 75 71 75 77
42 42 41 45 46 45 33 42 31 23 23 25 28 32 34 37 41 46 50 51 55 57 57 56 60 65 67 67 68 68 69 70 72 75 78 81 84 87 84 80 77 75 72 70 69 67 72 71 69
42 40 40 43 40 45 39 35 28 21 23 27 32 37 41 45 47 50 53 54 59 62 62 61 65 68 69 68 68 70 71 72 75 79 81 84 85 84 79 76 71 69 68 69 71 71 71 61 59
42 40 39 35 46 48 38 44 52 17 25 32 35 43 48 47 50 54 57 59 60 61 61 60 60 65 70 72 72 70 71 73 78 80 81 82 80 76 75 69 68 68 68 66 62 60 58 58 58
38 37 38 38 37 44 52 43 41 41 39 36 46 49 53 54 54 57 55 56 58 60 64 66 67 69 69 71 72 72 74 76 75 77 76 79 71 70 68 67 64 63 61 58 56 54 53 53 56
40 42 40 40 41 36 47 50 47 43 42 46 49 53 47 50 51 55 55 58 61 67 67 67 68 70 73 74 75 75 75 74 73 74 74 71 67 64 63 58 59 56 57 56 56 55 56 58 61
Wind_Direction
349 20 2 327 301 303 313 335 2 355 359 360 13 356 4 359 350 347 27 32 49 50 54 40 35 41 37 30 33 31 30 31 35 38 33 25 16 8 7 2 1 356 353 352 348 342 340 350 350
321 342 345 321 303 299 320 334 354 2 19 30 25 21 8 7 14 42 34 46 54 54 52 45 40 43 46 43 36 39 35 32 29 26 21 16 14 9 10 3 358 348 339 334 338 337 338 339 340
297 325 298 311 298 302 310 336 9 23 24 13 14 12 7 17 21 21 52 58 59 56 46 53 52 53 53 48 44 37 33 27 27 25 20 12 11 6 1 360 347 337 338 344 341 341 343 339 339
335 308 310 304 324 344 7 25 35 25 15 15 24 15 13 7 13 55 59 61 62 63 64 63 59 59 47 40 32 29 29 37 41 50 54 47 30 20 10 359 357 355 353 348 353 353 349 343 339
318 286 314 332 347 13 29 33 30 24 20 20 7 18 21 23 48 60 59 63 71 68 65 67 64 56 51 43 38 35 37 39 45 46 46 51 48 41 25 23 15 360 352 352 353 354 355 351 344
324 300 327 318 351 14 22 17 9 20 21 21 23 33 20 62 72 60 68 71 73 72 72 84 84 80 68 59 40 31 30 25 27 26 28 29 26 19 15 9 5 2 360 357 357 358 357 353 348
293 333 10 28 10 17 10 18 13 20 26 22 26 36 66 116 102 108 94 89 98 108 99 103 87 73 58 50 46 35 29 28 25 23 26 27 24 22 20 16 12 11 7 5 3 359 356 352 350
313 345 18 27 18 7 16 15 11 19 7 308 229 78 141 137 137 139 138 133 123 118 112 92 81 63 64 52 37 29 27 25 23 24 24 26 29 24 20 24 13 8 5 0 354 352 351 351 348
339 5 359 354 8 5 37 34 315 255 23 208 199 225 113 128 129 129 129 125 115 113 85 60 53 44 28 28 37 44 40 42 42 38 34 43 37 23 30 5 7 5 2 357 354 351 349 345 343
319 336 352 342 357 49 96 175 179 178 201 194 180 168 96 123 129 129 131 125 119 104 89 71 56 36 37 34 30 33 33 34 24 19 18 19 3 359 353 3 5 3 -0 352 349 345 342 341 340
324 348 355 327 249 214 206 203 196 195 190 172 140 126 122 129 131 134 130 119 112 94 89 63 49 39 34 16 20 35 34 28 27 16 7 3 1 3 2 2 7 7 1 352 352 342 338 330 327
343 311 241 220 205 208 198 205 199 199 267 246 262 102 115 124 128 128 127 103 98 96 86 68 54 48 31 21 22 17 27 21 18 10 6 4 1 356 355 352 346 347 347 341 340 336 334 329 325
269 214 208 198 196 207 210 195 205 190 67 96 63 89 106 117 121 119 106 97 83 84 85 69 57 44 37 31 17 16 16 17 6 5 0 358 354 352 351 347 346 345 344 340 336 333 330 327 324
204 194 196 199 202 207 201 210 184 297 6 64 89 107 103 96 106 96 96 91 82 83 74 68 55 49 34 20 13 8 9 4 3 358 357 356 354 350 347 345 343 341 342 338 335 331 328 325 322
193 194 204 209 212 240 219 197 189 354 42 59 64 114 114 96 88 76 80 73 72 81 77 55 38 27 18 11 4 358 357 357 356 354 353 351 349 346 344 342 340 339 339 336 335 332 330 327 325
190 206 180 266 245 279 211 198 45 11 241 121 74 56 99 74 67 53 59 66 81 63 45 19 10 8 5 359 354 348 349 349 349 349 347 345 344 344 341 339 337 336 334 332 330 328 325 323 320
214 197 241 318 274 280 277 314 354 301 276 355 36 70 42 45 85 71 57 31 25 7 357 351 348 346 346 347 345 344 343 344 346 346 344 344 341 340 337 334 333 333 332 330 327 325 322 320 317
259 246 306 277 335 304 317 318 327 333 343 351 355 355 360 22 49 43 3 358 345 343 341 341 339 342 341 337 339 338 340 341 343 341 340 341 338 339 336 333 331 331 328 325 321 318 317 314 312
284 282 304 327 318 294 313 321 337 344 3 8 19 24 26 22 3 355 346 349 352 347 347 347 346 343 338 337 335 334 335 336 336 337 339 338 337 336 334 330 327 326 322 321 318 315 313 311 309
300 297 315 313 318 302 326 348 353 5 5 16 26 34 34 28 20 14 11 8 3 358 354 353 350 346 342 341 337 336 333 334 334 338 338 335 332 329 326 325 323 321 319 318 316 314 311 309 309
319 299 307 299 317 323 326 341 359 12 23 23 21 19 13 12 9 7 7 6 3 358 355 353 348 345 345 340 339 336 334 334 332 328 327 326 327 324 324 322 322 321 320 318 317 315 311 309 307
303 338 319 314 319 335 1 333 338 10 8 12 4 359 358 358 1 1 2 360 357 353 350 348 344 341 341 340 336 334 330 327 325 323 325 326 326 325 325 325 325 323 322 319 317 316 313 311 307
319 318 320 322 321 317 325 318 329 359 351 353 352 352 355 354 355 357 356 354 351 348 344 341 339 338 337 335 334 331 328 327 327 327 326 326 328 328 328 327 325 323 321 318 316 314 312 310 307
321 321 323 321 320 314 317 317 323 315 339 344 348 347 349 351 353 353 350 348 346 344 341 340 339 338 337 336 335 333 330 329 327 327 328 330 329 329 328 327 326 324 321 320 319 319 318 315 312
324 319 314 316 316 316 331 318 316 340 340 342 344 347 350 349 347 344 342 340 341 341 341 339 338 337 338 337 334 333 331 331 331 330 330 329 328 328 328 327 326 325 324 322 320 318 316 317 313
335 332 328 316 316 319 333 320 325 344 349 348 345 345 345 343 340 339 338 339 340 340 339 340 339 337 337 335 334 334 333 332 332 331 330 329 328 328 329 329 330 330 330 329 328 325 321 319 316
346 344 342 327 329 321 321 331 333 337 340 341 340 339 337 334 335 336 338 339 337 337 339 339 337 336 336 336 335 334 333 331 329 330 329 329 329 330 332 333 333 332 331 330 327 326 325 322 323
353 352 345 348 328 323 333 330 324 340 330 332 333 334 334 334 333 335 335 336 339 341 341 339 338 336 335 335 335 334 333 332 331 331 331 332 332 335 334 335 334 332 332 330 331 329 328 326 327
6 3 355 346 341 330 323 331 341 333 327 324 328 331 331 332 333 334 337 338 338 340 340 339 337 337 337 337 336 335 334 333 333 333 334 335 336 337 336 335 335 334 333 334 333 332 330 327 323
13 2 357 347 341 338 327 322 333 335 330 329 327 330 335 335 337 337 339 339 340 339 339 338 338 338 338 337 337 336 335 336 336 337 336 336 335 336 336 337 337 341 339 337 335 331 329 326 323